Weather in Mukah

Malaysia     2°54′02″N   112°05′08″E
temp.,
°C
wind,
m/s
gust,
m/s
humid.,
%
clouds,
%
prec.,
mm/h
press.,
hPa
HPBL,
m
29 january, sat
sat2923:00+28w4474100 0.0 1011570
02:00+27w3376100 0.2 1010545
05:00+26sw2280100 2.3 1009191
08:00+25s3388100 2.6 1011200
11:00+26sse1182100 0.0 1011179
14:00+27n337617 0.0 1009259
17:00+28nnw447471 0.0 1007490
20:00+28wnw3374100 0.2 1009434
30 january, sun
sun3023:00+28wnw4375100 0.0 1010488
02:00+27wnw3375100 0.1 1009564
05:00+27wnw3377100 0.0 1008600
08:00+27s1178100 0.0 1010353
11:00+26n118188 0.7 1011197
14:00+27nnw3375100 1.9 1008668
17:00+27nw447680 0.2 1007736
20:00+28nnw3376100 0.2 1009601
31 january, mon
mon3123:00+27n3380100 2.0 1010180
02:00+27nne3378100 4.4 1008184
05:00+27nne237399 2.2 1008452
08:00+26ene1179100 5.8 101065
11:00+27ene2274100 1.1 1011435
14:00+28nne3373100 1.3 1008736
17:00+28nne3374100 0.0 1007714
20:00+28ne4477100 0.0 1009654
1 february, tue
tue123:00+28ne4478100 0.0 1009655
02:00+27ne4480100 0.1 1008597
05:00+27ene4580100 0.4 1008645
08:00+27ne5581100 0.6 1009646
11:00+27ne558184 0.1 1009594
14:00+27nne5579100 0.1 1007533
17:00+28nne5579100 0.0 1006671
20:00+28nne5680100 0.1 1008556
2 february, wed
wed223:00+28n6682100 0.1 1009600
02:00+27nne6681100 0.6 1008656
05:00+27ne558086 0.2 1007671
08:00+27ne557927 1.1 1009685
11:00+27ne45795 0.0 1010637
14:00+27nne458095 0.9 1007485
17:00+28nne5577100 0.1 1006638
20:00+28nne4579100 0.1 1008596